Date_and_time,latitude,longitude,wind_speed,RelWindDirFrom,WindDirFrom,air_pressure,air_temperature,relative_humidity,Temp,platform_speed_wrt_ground,air_pressure_at_mean_sea_level,platform_orientation
2018-06-24 23:50,50.911715,-96.9825316666667,2.5,3.6,88,990.30,22.1,66,20.74,0.0,1016.19,167.1
2018-06-25 00:00,50.911725,-96.98252,2.6,3.5,95,990.26,22.0,67,20.76,0.0,1016.16,170.2
2018-06-25 00:10,50.9117266666667,-96.9825166666667,2.8,4.3,85,990.30,22.3,67,20.77,0.0,1016.21,170.2
2018-06-25 00:20,50.9117116666667,-96.98254,2.8,4.0,86,990.31,22.4,67,20.78,0.0,1016.22,170.2
2018-06-25 00:30,50.9117266666667,-96.982535,3.2,4.7,78,990.23,22.4,67,20.79,0.0,1016.11,170.2
2018-06-25 00:40,50.9117283333333,-96.9825216666667,3.8,4.9,84,990.20,22.4,68,20.79,0.0,1016.06,170.2
2018-06-25 00:50,50.9117283333333,-96.9825283333333,4.1,5.5,111,990.22,21.6,71,20.80,0.0,1016.10,170.2
2018-06-25 01:00,50.9117266666667,-96.9825283333333,4.5,5.9,122,990.28,20.8,73,20.80,0.0,1016.20,360.0
2018-06-25 01:10,50.9117266666667,-96.9825283333333,5.0,6.2,129,990.26,20.5,76,20.80,0.0,1016.19,360.0
2018-06-25 01:20,50.911725,-96.9825283333333,4.4,5.3,133,990.28,20.5,79,20.79,0.0,1016.18,360.0
2018-06-25 01:30,50.9117266666667,-96.9825283333333,4.4,5.8,150,990.27,20.5,79,20.79,0.0,1016.17,360.0
2018-06-25 01:40,50.9117266666667,-96.9825266666667,5.2,7.7,156,990.30,20.5,79,20.78,0.0,1016.18,360.0
2018-06-25 01:50,50.9117516666667,-96.9825166666667,7.0,8.1,155,990.28,20.6,75,20.77,0.0,1016.17,360.0
2018-06-25 02:00,50.91174,-96.98252,6.8,8.0,149,990.21,20.5,76,20.77,0.0,1016.09,360.0
2018-06-25 02:10,50.9117333333333,-96.982525,7.2,8.1,144,990.27,20.4,78,20.76,0.0,1016.15,360.0
2018-06-25 02:20,50.9117366666667,-96.982545,8.0,9.7,147,990.25,20.4,79,20.75,0.0,1016.13,360.0
2018-06-25 02:30,50.9117266666667,-96.9825333333333,8.3,11.6,144,990.31,20.3,82,20.74,0.0,1016.19,360.0
2018-06-25 02:40,50.911725,-96.9825316666667,9.8,13.1,134,990.30,20.1,84,20.72,0.0,1016.23,360.0
2018-06-25 02:50,50.9117266666667,-96.9825333333333,11.6,13.2,127,990.35,20.1,83,20.71,0.0,1016.32,360.0
2018-06-25 03:00,50.9117266666667,-96.9825316666667,11.3,13.0,126,990.51,20.0,84,20.70,0.0,1016.49,350.2
2018-06-25 03:10,50.9117283333333,-96.9825333333333,11.0,12.9,121,990.57,20.0,84,20.69,0.0,1016.56,350.2
2018-06-25 03:20,50.9117283333333,-96.9825316666667,10.5,12.2,123,990.76,20.0,85,20.69,0.0,1016.75,350.2
2018-06-25 03:30,50.9117366666667,-96.9825266666667,9.7,11.5,127,990.89,20.0,84,20.68,0.0,1016.89,350.2
2018-06-25 03:40,50.9117166666667,-96.9825333333333,9.7,11.3,129,990.95,19.9,85,20.67,0.0,1016.95,350.2
2018-06-25 03:50,50.9117166666667,-96.982535,10.0,11.6,134,991.11,19.9,85,20.66,0.0,1017.11,350.2
2018-06-25 04:00,50.9117216666667,-96.98253,10.0,11.7,135,991.15,19.9,86,20.65,0.0,1017.16,360.0
2018-06-25 04:10,50.911725,-96.98253,8.7,10.5,132,991.09,19.8,87,20.64,0.0,1017.10,360.0
2018-06-25 04:20,50.9117366666667,-96.982515,8.3,10.1,133,991.07,19.7,89,20.63,0.0,1017.10,360.0
2018-06-25 04:30,50.9116966666667,-96.9825083333333,8.1,10.3,132,991.04,19.6,90,20.63,0.0,1017.08,360.0
2018-06-25 04:40,50.91174,-96.9825316666667,7.9,9.5,130,990.92,19.6,90,20.62,0.0,1016.96,360.0
2018-06-25 04:50,50.9117166666667,-96.9825116666667,8.6,11.0,132,990.84,19.6,90,20.61,0.0,1016.87,360.0
2018-06-25 05:00,50.9117216666667,-96.9825183333333,9.5,11.7,134,990.79,19.6,89,20.59,0.0,1016.82,360.0
2018-06-25 05:10,50.911725,-96.9825216666667,10.4,12.3,135,990.73,19.7,88,20.59,0.0,1016.77,360.0
2018-06-25 05:20,50.911725,-96.9825333333333,11.5,14.6,137,990.63,19.7,86,20.58,0.0,1016.66,360.0
2018-06-25 05:30,50.911725,-96.9825366666667,12.5,14.9,137,990.55,19.7,85,20.57,0.0,1016.58,360.0
2018-06-25 05:40,50.911725,-96.9825366666667,12.0,14.4,138,990.48,19.7,86,20.56,0.0,1016.51,360.0
2018-06-25 05:50,50.9117283333333,-96.9825383333333,12.2,14.9,139,990.39,19.6,86,20.55,0.0,1016.42,360.0
2018-06-25 06:00,50.9117283333333,-96.9825366666667,12.0,13.9,140,990.33,19.6,86,20.54,0.0,1016.36,270.0
2018-06-25 06:10,50.9117216666667,-96.982525,11.2,13.2,141,990.20,19.5,87,20.54,0.0,1016.24,270.0
2018-06-25 06:20,50.911725,-96.9825316666667,10.8,13.0,142,990.17,19.4,88,20.53,0.0,1016.22,270.0
2018-06-25 06:30,50.9117233333333,-96.982535,10.6,12.2,145,990.27,19.4,88,20.52,0.0,1016.32,270.0
2018-06-25 06:40,50.9117233333333,-96.9825333333333,10.4,12.6,146,990.35,19.4,89,20.51,0.0,1016.41,270.0
2018-06-25 06:50,50.911725,-96.9825333333333,11.3,13.5,149,990.36,19.4,89,20.51,0.0,1016.42,270.0
2018-06-25 07:00,50.9116933333333,-96.9825383333333,12.9,15.0,154,990.37,19.4,88,20.50,0.0,1016.42,191.7
2018-06-25 07:10,50.9117283333333,-96.982515,12.1,15.3,159,990.34,19.4,89,20.49,0.0,1016.39,191.7
2018-06-25 07:20,50.9117266666667,-96.9825266666667,12.9,16.5,158,990.37,19.4,88,20.48,0.0,1016.41,191.7
2018-06-25 07:30,50.9117083333333,-96.9825216666667,12.3,16.2,159,990.43,19.4,88,20.47,0.0,1016.48,191.7
2018-06-25 07:40,50.91172,-96.98253,11.7,15.7,162,990.52,19.5,84,20.46,0.0,1016.57,191.7
2018-06-25 07:50,50.9117233333333,-96.9825333333333,12.4,15.7,160,990.52,19.4,84,20.44,0.0,1016.58,191.7
2018-06-25 08:00,50.9117266666667,-96.9825333333333,14.4,17.6,157,990.46,19.3,84,20.43,0.0,1016.53,350.2
2018-06-25 08:10,50.91173,-96.9825316666667,15.8,19.9,157,990.38,19.3,82,20.41,0.0,1016.45,350.2
2018-06-25 08:20,50.9117316666667,-96.9825333333333,15.3,18.7,157,990.27,19.2,84,20.39,0.0,1016.34,350.2
2018-06-25 08:30,50.91173,-96.98253,14.2,19.1,159,990.23,19.1,83,20.37,0.0,1016.30,350.2
2018-06-25 08:40,50.91172,-96.9825366666667,14.4,17.6,157,990.14,19.0,85,20.36,0.0,1016.21,350.2
2018-06-25 08:50,50.9117266666667,-96.9825333333333,13.3,15.3,155,990.13,18.9,86,20.34,0.0,1016.21,350.2
2018-06-25 09:00,50.9117266666667,-96.9825283333333,13.6,15.8,155,990.14,18.8,86,20.33,0.0,1016.23,90.0
2018-06-25 09:10,50.9117266666667,-96.9825233333333,14.1,16.2,154,990.07,18.7,85,20.32,0.0,1016.16,90.0
2018-06-25 09:20,50.9117266666667,-96.982525,14.5,17.5,154,990.00,18.6,84,20.31,0.0,1016.08,90.0
2018-06-25 09:30,50.9117266666667,-96.982525,16.2,18.8,155,990.07,18.7,84,20.29,0.0,1016.16,90.0
2018-06-25 09:40,50.911725,-96.982525,14.2,16.8,152,990.04,18.5,85,20.26,0.0,1016.13,90.0
2018-06-25 09:50,50.911725,-96.9825266666667,15.9,18.2,154,990.03,18.5,84,20.25,0.0,1016.12,90.0
2018-06-25 10:00,50.9116833333333,-96.9825233333333,15.0,17.4,155,990.05,18.5,85,20.24,0.0,1016.14,132.1
2018-06-25 10:10,50.9117166666667,-96.9825233333333,15.4,18.4,156,990.09,18.5,86,20.22,0.0,1016.19,132.1
2018-06-25 10:20,50.9117183333333,-96.98253,15.1,19.0,157,990.16,18.4,87,20.20,0.0,1016.27,132.1
2018-06-25 10:30,50.9117333333333,-96.9825333333333,15.8,19.5,156,990.13,18.4,87,20.17,0.0,1016.25,132.1
2018-06-25 10:40,50.9117283333333,-96.982535,15.5,18.6,157,990.12,18.4,87,20.15,0.0,1016.24,132.1
2018-06-25 10:50,50.9117266666667,-96.9825266666667,14.7,17.2,157,990.13,18.3,88,20.12,0.0,1016.26,132.1
2018-06-25 11:00,50.9117266666667,-96.9825266666667,15.6,18.0,155,990.05,18.3,87,20.11,0.0,1016.19,90.0
2018-06-25 11:10,50.9117266666667,-96.9825283333333,17.2,19.6,154,990.00,18.3,85,20.09,0.0,1016.14,90.0
2018-06-25 11:20,50.9117283333333,-96.9825266666667,14.9,18.2,156,990.11,18.3,86,20.07,0.0,1016.25,90.0
2018-06-25 11:30,50.9117283333333,-96.9825266666667,14.4,17.7,156,990.03,18.3,85,20.06,0.0,1016.17,90.0
2018-06-25 11:40,50.9117266666667,-96.982525,14.7,17.2,155,989.95,18.2,83,20.05,0.0,1016.09,90.0
2018-06-25 11:50,50.9117266666667,-96.9825266666667,14.2,16.8,155,989.91,18.2,83,20.04,0.0,1016.05,90.0
2018-06-25 12:00,50.9117266666667,-96.9825266666667,16.1,19.5,156,989.85,18.2,83,20.03,0.0,1015.99,0.0
2018-06-25 12:10,50.9117,-96.9825616666667,15.2,18.8,159,989.91,18.2,82,20.01,0.0,1016.06,0.0
2018-06-25 12:20,50.9117283333333,-96.982535,14.8,17.4,160,989.88,18.1,83,19.99,0.0,1016.04,0.0
2018-06-25 12:30,50.9117316666667,-96.9825183333333,15.4,18.4,153,989.90,18.0,82,19.97,0.0,1016.06,0.0
2018-06-25 12:40,50.9117216666667,-96.98252,15.3,17.7,155,989.89,17.9,82,19.96,0.0,1016.05,0.0
2018-06-25 12:50,50.9117216666667,-96.9825216666667,13.9,15.8,153,989.92,18.0,81,19.96,0.0,1016.08,0.0
2018-06-25 13:00,50.9117183333333,-96.9825216666667,14.4,15.9,153,989.90,18.0,79,19.96,0.0,1016.07,17.9
2018-06-25 13:10,50.9117216666667,-96.9825233333333,12.3,15.5,153,989.87,18.0,80,19.96,0.0,1016.02,17.9
2018-06-25 13:20,50.9117333333333,-96.9825216666667,12.9,15.2,153,989.96,18.0,80,19.97,0.0,1016.12,17.9
2018-06-25 13:30,50.9117283333333,-96.9825216666667,14.0,16.3,150,990.19,18.0,83,19.98,0.0,1016.36,17.9
2018-06-25 13:40,50.9117216666667,-96.9825283333333,15.4,17.4,151,990.26,17.9,82,19.98,0.0,1016.44,17.9
2018-06-25 13:50,50.9117216666667,-96.9825266666667,15.6,18.2,151,990.34,17.9,82,19.97,0.0,1016.52,17.9
2018-06-25 14:00,50.91172,-96.982525,13.9,17.3,155,990.36,18.0,82,19.96,0.0,1016.54,360.0
2018-06-25 14:10,50.91172,-96.982525,14.0,17.4,158,990.39,18.1,80,19.96,0.0,1016.57,360.0
2018-06-25 14:20,50.91172,-96.9825266666667,14.4,17.3,158,990.45,18.2,81,19.95,0.0,1016.63,360.0
2018-06-25 14:30,50.91172,-96.9825266666667,14.7,17.4,155,990.48,18.0,81,19.95,0.0,1016.67,360.0
2018-06-25 14:40,50.91172,-96.9825266666667,13.7,16.8,153,990.33,18.0,81,19.94,0.0,1016.51,360.0
2018-06-25 14:50,50.9117216666667,-96.9825283333333,13.9,16.4,149,990.21,18.0,83,19.95,0.0,1016.39,360.0
2018-06-25 15:00,50.9117216666667,-96.9825283333333,13.0,15.1,147,990.10,18.1,83,19.95,0.0,1016.28,360.0
2018-06-25 15:10,50.9117533333333,-96.9825233333333,14.6,17.5,148,990.03,17.9,85,19.97,0.0,1016.22,360.0
2018-06-25 15:20,50.9117366666667,-96.9825216666667,14.3,16.0,148,989.97,17.8,85,19.97,0.0,1016.16,360.0
2018-06-25 15:30,50.9117366666667,-96.9825283333333,14.4,17.0,148,989.89,17.9,84,19.96,0.0,1016.07,360.0
2018-06-25 15:40,50.911735,-96.98253,14.1,16.6,151,989.84,18.0,83,19.95,0.0,1016.02,360.0
2018-06-25 15:50,50.9117316666667,-96.9825316666667,15.7,17.3,152,989.78,18.0,83,19.93,0.0,1015.95,360.0
2018-06-25 16:00,50.91173,-96.98253,14.4,16.3,153,989.72,18.0,83,19.91,0.0,1015.88,337.3
2018-06-25 16:10,50.91172,-96.9825133333333,13.5,15.6,148,989.57,18.1,83,19.91,0.0,1015.72,337.3
2018-06-25 16:20,50.91172,-96.9825183333333,14.2,16.7,147,989.51,18.2,83,19.91,0.0,1015.66,337.3
2018-06-25 16:30,50.911735,-96.982535,15.5,17.4,150,989.46,18.2,81,19.92,0.0,1015.60,337.3
2018-06-25 16:40,50.9117316666667,-96.98253,14.5,16.6,145,989.29,18.3,82,19.93,0.0,1015.43,337.3
2018-06-25 16:50,50.9117333333333,-96.98253,13.3,15.5,142,989.18,18.6,81,19.95,0.0,1015.30,337.3
2018-06-25 17:00,50.9117266666667,-96.9825366666667,15.0,17.2,147,989.20,18.5,82,19.98,0.0,1015.34,360.0
2018-06-25 17:10,50.9117283333333,-96.9825366666667,14.4,16.4,148,989.16,18.6,82,19.99,0.0,1015.30,360.0
2018-06-25 17:20,50.9117266666667,-96.98253,13.2,15.1,146,989.14,18.6,81,20.01,0.0,1015.27,360.0
2018-06-25 17:30,50.9117266666667,-96.9825333333333,12.6,15.1,146,989.10,18.9,81,20.03,0.0,1015.21,360.0
2018-06-25 17:40,50.911725,-96.9825316666667,12.4,13.9,145,989.01,18.8,81,20.06,0.0,1015.12,360.0
2018-06-25 17:50,50.9117233333333,-96.9825316666667,10.9,13.4,144,988.92,18.7,82,20.07,0.0,1015.04,360.0
2018-06-25 18:00,50.9117233333333,-96.98253,10.0,11.7,151,988.82,19.2,79,20.08,0.0,1014.90,360.0
2018-06-25 18:10,50.911725,-96.9825283333333,7.9,9.8,158,988.69,19.8,75,20.10,0.0,1014.74,360.0
2018-06-25 18:20,50.911725,-96.98253,7.2,9.1,149,988.66,20.0,76,20.13,0.0,1014.70,360.0
2018-06-25 18:30,50.911725,-96.98253,10.5,13.4,154,988.60,20.1,75,20.15,0.0,1014.63,360.0
2018-06-25 18:40,50.9117266666667,-96.9825133333333,10.6,12.0,154,988.48,20.1,72,20.17,0.0,1014.49,360.0
2018-06-25 18:50,50.9117183333333,-96.9825316666667,9.2,11.3,149,988.29,20.1,74,20.18,0.0,1014.31,360.0
2018-06-25 19:00,50.9117166666667,-96.98253,7.4,9.2,147,988.18,20.1,76,20.19,0.0,1014.19,162.1
2018-06-25 19:10,50.9117183333333,-96.982535,8.2,9.7,140,988.07,20.0,76,20.20,0.0,1014.08,162.1
2018-06-25 19:20,50.9117183333333,-96.98253,7.0,8.8,132,988.02,19.8,78,20.21,0.0,1014.02,162.1
2018-06-25 19:30,50.91172,-96.9825316666667,6.5,8.0,129,987.91,20.0,76,20.24,0.0,1013.91,162.1
2018-06-25 19:40,50.9117216666667,-96.9825316666667,6.1,7.5,137,987.90,20.1,74,20.27,0.0,1013.90,162.1
2018-06-25 19:50,50.9117216666667,-96.9825333333333,6.3,7.7,129,987.81,20.2,75,20.32,0.0,1013.77,162.1
2018-06-25 20:00,50.9117233333333,-96.9825316666667,6.4,7.7,124,987.62,20.1,77,20.36,0.0,1013.56,170.2
2018-06-25 20:10,50.9117233333333,-96.9825316666667,7.4,8.9,131,987.54,20.4,75,20.41,0.0,1013.45,170.2
2018-06-25 20:20,50.9117233333333,-96.98253,8.8,10.9,144,987.56,20.6,75,20.45,0.0,1013.46,170.2
2018-06-25 20:30,50.91172,-96.98253,9.9,11.5,150,987.58,20.7,76,20.50,0.0,1013.47,170.2
2018-06-25 20:40,50.9117283333333,-96.9825283333333,10.7,14.0,154,987.56,20.6,78,20.53,0.0,1013.47,170.2
2018-06-25 20:50,50.911725,-96.982525,10.4,12.8,157,987.48,21.3,73,20.56,0.0,1013.35,170.2
2018-06-25 21:00,50.9117266666667,-96.982505,10.6,13.6,155,987.41,21.6,71,20.58,0.0,1013.26,66.1
2018-06-25 21:10,50.9117383333333,-96.9825516666667,12.3,16.8,165,987.29,22.3,67,20.62,0.0,1013.13,66.1
2018-06-25 21:20,50.9117266666667,-96.9825316666667,12.4,17.0,166,987.11,22.5,66,20.67,0.0,1012.92,66.1
2018-06-25 21:30,50.9117233333333,-96.982525,14.3,18.7,161,986.96,22.6,66,20.72,0.0,1012.76,66.1
2018-06-25 21:40,50.9117216666667,-96.9825283333333,15.0,19.9,159,986.93,22.4,67,20.76,0.0,1012.73,66.1
2018-06-25 21:50,50.91172,-96.9825316666667,16.2,20.5,158,986.89,22.3,67,20.79,0.0,1012.70,66.1
2018-06-25 22:00,50.91172,-96.9825333333333,15.1,17.7,154,986.88,22.2,69,20.82,0.0,1012.67,312.1
2018-06-25 22:10,50.9117183333333,-96.9825316666667,14.0,15.8,152,986.76,22.3,70,20.84,0.0,1012.55,312.1
2018-06-25 22:20,50.91172,-96.9825316666667,12.8,14.6,151,986.67,22.4,71,20.87,0.0,1012.45,312.1
2018-06-25 22:30,50.9117233333333,-96.9825466666667,13.7,15.4,149,986.59,22.4,70,20.89,0.0,1012.36,312.1
2018-06-25 22:40,50.9117266666667,-96.9825433333333,13.8,16.1,148,986.44,22.4,71,20.92,0.0,1012.18,312.1
2018-06-25 22:50,50.9116866666667,-96.9825266666667,13.1,15.4,147,986.34,22.6,71,20.94,0.0,1012.05,312.1
2018-06-25 23:00,50.9117233333333,-96.9825283333333,13.6,16.7,153,986.31,22.3,72,20.96,0.0,1012.01,0.0
2018-06-25 23:10,50.9117366666667,-96.982535,12.8,14.5,156,986.28,22.8,69,20.97,0.0,1011.94,0.0
2018-06-25 23:20,50.9117283333333,-96.9825316666667,12.9,15.9,152,986.22,22.8,71,20.99,0.0,1011.88,0.0
2018-06-25 23:30,50.911725,-96.9825216666667,13.9,15.7,148,986.20,22.2,74,21.00,0.0,1011.89,0.0
